sat.trackr.live / text

‹ back to catalog

GEESAT-6 05

NORAD 65717 · 2025-214F

PAYLOAD ACTIVE UNKNOWN

§ Identity

Operator
Country
PRC
Launch date
2025-09-24
Launch site
YSLA
Launch vehicle
Mass (kg)
RCS (m²)

External: N2YO · Heavens-Above · Gunter

§ Orbital elements

Epoch: 2026-05-25T03:25:30.234720Z

Period
97.08 min
Inclination
49.9809°
Eccentricity
0.0012555
Mean motion
14.83277065 rev/d
Perigee alt
610.2 km
Apogee alt
627.8 km
Semi-major
6,997.1 km
B*
2.0007e-4
RAAN
55.1142°
Arg perigee
122.4133°
Mean anomaly
237.8022°
Rev number
3,608

§ Raw data

GEESAT-6 051 65717U 25214F   26145.14271105  .00001428  00000+0  20007-3 0  99952 65717  49.9809  55.1142 0012555 122.4133 237.8022 14.83277065 36083

JSON: /api/v1/satellites/65717 · /tle

For live sub-satellite position, see the globe view (requires WebGL).

§ Visibility from observer

Set your observer location to see the next 7 days of passes ≥ 10°. The values pass through the URL so the page stays shareable.

No JS? Fill the form by hand. The geolocation button needs JavaScript.